User: anonymous   Login
Location: Unspecified
(0.0000°N, 0.0000°E)
Time: 19:55:29
(UTC+00:00)
Language:

Explorer 11/Cluster Stage 4 - Orbit

View from above orbital plane
View from above orbital plane
View from above satellite
View from above satellite

Ground track
Ground track

The orbit data is extracted from the following two-line orbital elements,

1 00107U 61013A   24199.16657232  .00008117  00000-0  10288-2 0  9994
2 00107  28.7870  16.2170 0519933  97.2759 268.7186 14.15635662176942
Epoch (UTC): 17 July 2024 03:59:51
Eccentricity: 0.0519933
inclination: 28.7870°
perigee height: 465 km
apogee height: 1215 km
right ascension of ascending node: 16.2170°
argument of perigee: 97.2759°
revolutions per day: 14.15635662
mean anomaly at epoch: 268.7186°
orbit number at epoch: 17694

The dashed part of the orbit path shows where the satellite is in the earth's shadow,  

DLR